Regional Weather Roundup
Issued by NWS

Home | Current Version | Previous Version | Text Only | Print | Product List | Glossary On
Versions: 1 2 3 4 5 6 7 8 9 10 11 12 13 14 15 16 17 18 19 20 21 22 23 24 25 26 27 28 29 30 31 32 33 34 35 36 37 38 39 40 41 42 43 44 45 46 47 48 49 50
000
ASUS44 KFWD 031510
RWRTX
NORTH TEXAS HOURLY WEATHER ROUNDUP
NATIONAL WEATHER SERVICE FORT WORTH TX
900 AM CST TUE MAR 03 2015

NOTE: "FAIR" INDICATES FEW OR NO CLOUDS BELOW 12,000 FEET WITH NO
SIGNIFICANT WEATHER AND/OR OBSTRUCTIONS TO VISIBILITY.

TXZ118-119-031600-
DALLAS/FORT WORTH METROPLEX

CITY           SKY/WX    TMP DP  RH WIND       PRES   REMARKS
DFW AIRPORT    CLOUDY    43  42  97 S6        30.00R FOG     WCI  39
DALLAS LOVE    CLOUDY    45  43  93 S5        30.01R FOG
FTW MEACHAM    CLOUDY    46  43  89 S7        29.99R FOG
DAL-EXECUTIVE  CLOUDY    45  45 100 S7        29.99R FOG
FTW-ALLIANCE   CLOUDY    44  43  96 S6        29.99S FOG
FTW-SPINKS     CLOUDY    45  43  93 S6        30.02R FOG
ARLINGTON      CLOUDY    45  41  86 S6        30.00R
GRAND PRAIRIE  CLOUDY    45  45 100 S6        30.02R FOG
ADDISON        CLOUDY    45  43  93 CALM      30.02R FOG
MESQUITE       CLOUDY    45  43  93 SE8       30.01S FOG
LANCASTER      CLOUDY    44  42  95 S5        30.02F FOG
$$

TXZ091>094-102>105-117-120-121-131>134-031600-
NORTH CENTRAL TEXAS

CITY           SKY/WX    TMP DP  RH WIND       PRES   REMARKS
SHRMAN/DENISON FOG       44  44 100 CALM      30.02R VSB 1/4
GAINESVILLE    CLOUDY    41  40  99 CALM      30.02R FOG
BOWIE          CLOUDY    40  40  99 S3        29.99R FOG
BRIDGEPORT     CLOUDY    42  42 100 CALM      30.02R FOG
DECATUR        CLOUDY    42  42 100 SW6       29.99S FOG     WCI  38
DENTON         CLOUDY    43  43 100 S5        30.00R FOG
MCKINNEY       CLOUDY    44  44 100 S6        30.00S FOG
GREENVILLE     CLOUDY    45  43  93 SE8       30.00F FOG
TERRELL        CLOUDY    47  45  93 SE6       30.01S FOG
WAXAHACHIE     CLOUDY    43  43 100 S5        30.01S FOG
CLEBURNE       CLOUDY    41  41 100 S6        30.01S WCI  37
GRANBURY       CLOUDY    46  44  93 E3        30.01R FOG
$$

TXZ083>090-098>101-113>116-127>130-139>142-154-155-031600-
WESTERN NORTH TEXAS

CITY           SKY/WX    TMP DP  RH WIND       PRES   REMARKS
WICHITA FALLS  CLOUDY    40  39  97 S7        29.98S FOG     WCI  35
WF-KICKAPOO    CLOUDY    42  40  91 S6        30.00R WCI  39
VERNON         CLOUDY    43  36  75 S9        29.96S WCI  38
ABILENE        CLOUDY    44  42  93 W9        29.97R WCI  39
ABILENE-DYESS  CLOUDY    45  42  91 N5        29.95R
BRECKENRIDGE   CLOUDY    45  43  93 CALM      29.97S
GRAHAM         CLOUDY    41  40  99 SE3       29.97R FOG
MINERAL WELLS  CLOUDY    42  41  96 SE3       29.98R FOG
STEPHENVILLE   CLOUDY    46  44  95 S3        30.00R
COMANCHE       CLOUDY    47  47 100 SE5       29.97S
BROWNWOOD      PTSUNNY   45  45 100 S5        29.98S
COLEMAN        CLOUDY    43  43 100 S5        29.97R
$$

TXZ143>147-156>162-174-175-031600-
CENTRAL TEXAS

CITY           SKY/WX    TMP DP  RH WIND       PRES   REMARKS
WACO           FOG       41  41 100 CALM      30.02S VSB 1/2
WACO-MCGREGOR    N/A     43  37  81 S3        30.03S VSB 1
HILLSBORO      FOG       44  43  97 SE7       30.00F VSB 3/4 WCI  40
CORSICANA      FOG       46  44  93 SE8       30.01F VSB 1/4
MEXIA          FOG       45  45  99 E3        30.00F VSB 1/4
HEARNE         FOG       45  45 100 E6        30.03F VSB 1/4
CAMERON        FOG       44  44  99 CALM      30.02F VSB 1/2
TEMPLE         CLOUDY    43  37  81 CALM      30.01R VSB 1/2
KILLEEN        DRZL/FOG  41  41 100 SE3       30.00S VSB 1/2
KILLEEN-SKYLRK CLOUDY    43  37  81 CALM      29.98S VSB 1/4
FORT HOOD      FOG       41  41 100 SW3       30.00S VSB 1/2
GATESVILLE     PTSUNNY   43  43 100 CALM      30.03S FOG
HAMILTON       CLOUDY    44  44 100 SE7       29.99S FOG
LAMPASAS       FOG       41  41  99 CALM      29.98F VSB 1
$$

TXZ095>097-106>112-122>126-135>138-148>153-164>167-031600-
EAST TEXAS

CITY           SKY/WX    TMP DP  RH WIND       PRES   REMARKS
PARIS          CLOUDY    41  37  87 SE8       30.03R VSB 1   WCI  36
SULPHUR SPRNGS CLOUDY    46  46 100 S5        30.03F FOG
MOUNT PLEASANT CLOUDY    43  43 100 CALM      30.06S
GILMER         FOG       44  44 100 SE3       30.05S VSB 1/4
MINEOLA        CLOUDY    46  46 100 SE5       30.03F FOG
TYLER          FOG       48  46  93 SE7       30.03F VSB 1/4
LONGVIEW       FOG       46  44  93 SE3       30.05F VSB 1/4
MARSHALL       CLOUDY    48  47  94 S3        30.08F VSB 1/4
ATHENS         CLOUDY    46  46 100 SE6       30.01F FOG
PALESTINE      FOG       49  49 100 E5        30.04F VSB 3/4
JACKSONVILLE   FOG       51  50  98 S3        30.06S VSB<1/4
HENDERSON      CLOUDY    47  47 100 CALM      30.07S VSB 1/4
NACOGDOCHES    CLOUDY    43  43 100 CALM      30.06S VSB 1/4
LUFKIN         FOG       55  52  89 SE6       30.06S VSB 1/2
$$

SUPPLEMENTAL OBSERVATIONS (CENTRAL)

CITY           SKY/WX    TMP DP  RH WIND       PRES   REMARKS
$$

SUPPLEMENTAL OBSERVATIONS (WEST)

CITY           SKY/WX    TMP DP  RH WIND       PRES   REMARKS
$$

SUPPLEMENTAL OBSERVATIONS (EAST)

CITY           SKY/WX    TMP DP  RH WIND       PRES   REMARKS
$$

SUPPLEMENTAL OBSERVATIONS ARE A COLLECTION OF AUTOMATED INSTRUMENTS
THAT ARE MAINTAINED BY A VARIETY OF FEDERAL AND STATE AGENCIES.
CERTAIN ELEMENTS...SUCH AS HUMIDITY VALUES AND SUSTAINED WIND
SPEEDS...MAY BE APPROXIMATED.




USA.gov is the U.S. government's official web portal to all federal, state and local government web resources and services.